Find Kosmos-2192

NORAD ID: 21981 Int'l Des: 1992-030 Owner: VVSR Country: RU operational
LEOCIRCULAR

实时位置

正在加载3D地球...

关于 Kosmos-2192

正在加载描述...

即将过境

Passes for default location (London). Set your location on the main map for personalized predictions.

高度历史

Loading altitude history...

两行轨道根数

1 21981U 92030F 26106.77400955 -.00000005 00000-0 73668-4 0 9997
2 21981 73.9994 110.5312 0008073 106.9330 66.4791 12.46693643541453
Epoch: Apr 16, 2026 • Age: 15 hours

当前状态

高度 1483.1 km
速度 7.13 km/s
星下点 57.13°N, 149.69°E
发射日期 Jun 3, 1992
运行时间 33.8 years
类型 other

技术详情

分类 Payload
质量 60.00 kg
干质量 60.00 kg
总质量 60.00 kg
长度 0.80 m
直径 0.80 m
跨度 0.80 m
形状 Poly
制造商 NPOPM
平台类型 Strela-1 11F625
阶段状态 In Orbit
所有者/国家 VVSR/RU

Most Searched